Williams, AZ

11:04 PM MST on February 24, 2017 (GMT -0700)
Williams

Weather History for KCMR - March, 2015

Change the Weather History Date:

Sunday, March 29, 2015

  Actual Average (K40G) Record (K40G)
Temperature  
Mean Temperature 50 °F -  
Max Temperature 69 °F 52 °F 71 °F (1997)
Min Temperature 32 °F 42 °F 26 °F (1998)
Degree Days  
Heating Degree Days 14    
Moisture  
Dew Point 18 °F    
Average Humidity 31    
Maximum Humidity 64    
Minimum Humidity 10    
Precipitation  
Precipitation 0.00 in - - ()
Sea Level Pressure  
Sea Level Pressure 30.35 in    
Wind  
Wind Speed 8 mph (South)    
Max Wind Speed 13 mph    
Max Gust Speed 21 mph    
Visibility 10 miles    
Events      
Averages and records for this station are not official NWS values.
T = Trace of Precipitation, MM = Missing Value Source: NWS Daily Summary

Daily Weather History Graph

Daily Weather History Graph

Search for Another Location

Airport or City:

Trip Planner

Search our weather history database for the weather conditions in past years. The results will help you decide how hot, cold, wet, or windy it might be!

Date:

Astronomy

Mar. 29, 2015 Rise Set
Actual Time 6:19 AM MST 6:47 PM MST
Civil Twilight 5:54 AM MST 7:13 PM MST
Nautical Twilight 5:24 AM MST 7:43 PM MST
Astronomical Twilight 4:54 AM MST 8:13 PM MST
Moon 1:56 PM MST (3/29) 2:58 AM MST (3/29)
Length of Visible Light 13h 18m
Length of Day
12h 27m
Waxing Gibbous, 73% of the Moon is Illuminated
Mar 29
Waxing Gibbous
Apr 4
Full
Apr 11
Last Quarter
Apr 18
New
Apr 25
First Quarter

Hourly Weather History & Observations

Time (MST) Temp. Windchill Dew Point Humidity Pressure Visibility Wind Dir Wind Speed Gust Speed Precip Events Conditions
12:15 AM 41.0 °F 36.4 °F 21.2 °F 45% 30.38 in 10.0 mi South 6.9 mph - N/A   Clear
12:35 AM 39.2 °F 33.0 °F 21.2 °F 49% 30.38 in 10.0 mi SSE 9.2 mph - N/A   Clear
12:55 AM 39.2 °F 33.6 °F 21.2 °F 49% 30.37 in 10.0 mi SSE 8.1 mph - N/A   Clear
1:15 AM 37.4 °F 30.8 °F 21.2 °F 52% 30.37 in 10.0 mi SSE 9.2 mph - N/A   Clear
1:35 AM 37.4 °F 30.8 °F 21.2 °F 52% 30.37 in 10.0 mi SSE 9.2 mph - N/A   Clear
1:55 AM 37.4 °F 30.3 °F 21.2 °F 52% 30.37 in 10.0 mi SSE 10.4 mph - N/A   Clear
2:15 AM 37.4 °F 29.8 °F 21.2 °F 52% 30.36 in 10.0 mi SSE 11.5 mph - N/A   Clear
2:35 AM 37.4 °F 29.8 °F 21.2 °F 52% 30.36 in 10.0 mi SSE 11.5 mph - N/A   Clear
2:55 AM 37.4 °F 30.3 °F 21.2 °F 52% 30.35 in 10.0 mi SSE 10.4 mph - N/A   Clear
3:15 AM 37.4 °F 32.8 °F 21.2 °F 52% 30.35 in 10.0 mi SSE 5.8 mph - N/A   Clear
3:35 AM 35.6 °F 28.6 °F 21.2 °F 56% 30.35 in 10.0 mi SSE 9.2 mph - N/A   Clear
3:55 AM 35.6 °F 28.6 °F 21.2 °F 56% 30.35 in 10.0 mi SSE 9.2 mph - N/A   Clear
4:15 AM 33.8 °F 26.4 °F 21.2 °F 60% 30.35 in 10.0 mi SSE 9.2 mph - N/A   Clear
4:35 AM 33.8 °F 26.4 °F 21.2 °F 60% 30.34 in 10.0 mi SSE 9.2 mph - N/A   Clear
4:55 AM 33.8 °F 26.4 °F 21.2 °F 60% 30.35 in 10.0 mi SSE 9.2 mph - N/A   Clear
5:15 AM 33.8 °F 26.4 °F 21.2 °F 60% 30.35 in 10.0 mi SSE 9.2 mph - N/A   Clear
5:35 AM 33.8 °F 26.4 °F 21.2 °F 60% 30.36 in 10.0 mi SSE 9.2 mph - N/A   Clear
5:55 AM 32.0 °F 24.2 °F 21.2 °F 64% 30.36 in 10.0 mi SSE 9.2 mph - N/A   Clear
6:15 AM 32.0 °F 24.2 °F 21.2 °F 64% 30.36 in 10.0 mi SSE 9.2 mph - N/A   Clear
6:35 AM 32.0 °F 24.2 °F 21.2 °F 64% 30.37 in 10.0 mi SSE 9.2 mph - N/A   Clear
6:55 AM 35.6 °F 28.6 °F 21.2 °F 56% 30.37 in 10.0 mi South 9.2 mph - N/A   Clear
7:15 AM 37.4 °F 30.8 °F 21.2 °F 52% 30.37 in 10.0 mi SSE 9.2 mph - N/A   Clear
7:35 AM 42.8 °F 37.5 °F 23.0 °F 46% 30.38 in 10.0 mi SSE 9.2 mph - N/A   Clear
7:55 AM 48.2 °F - 23.0 °F 37% 30.38 in 10.0 mi SSE 6.9 mph - N/A   Clear
8:15 AM 53.6 °F - 24.8 °F 33% 30.38 in 10.0 mi SSE 4.6 mph - N/A   Clear
8:35 AM 57.2 °F - 23.0 °F 27% 30.39 in 10.0 mi SSE 3.5 mph - N/A   Clear
8:55 AM 60.8 °F - 19.4 °F 20% 30.40 in 10.0 mi Calm Calm - N/A   Clear
9:15 AM 62.6 °F - 17.6 °F 18% 30.39 in 10.0 mi Calm Calm - N/A   Clear
9:35 AM 62.6 °F - 17.6 °F 18% 30.40 in 10.0 mi Calm Calm - N/A   Clear
9:55 AM 64.4 °F - 17.6 °F 16% 30.40 in 10.0 mi Variable 4.6 mph - N/A   Clear
10:15 AM 64.4 °F - 17.6 °F 16% 30.40 in 10.0 mi NNW 8.1 mph - N/A   Clear
10:35 AM 64.4 °F - 17.6 °F 16% 30.40 in 10.0 mi East 8.1 mph - N/A   Clear
10:55 AM 66.2 °F - 14.0 °F 13% 30.40 in 10.0 mi Variable 5.8 mph - N/A   Clear
11:15 AM 66.2 °F - 12.2 °F 12% 30.39 in 10.0 mi NW 6.9 mph - N/A   Clear
11:35 AM 66.2 °F - 14.0 °F 13% 30.39 in 10.0 mi North 4.6 mph - N/A   Clear
11:55 AM 68.0 °F - 14.0 °F 12% 30.38 in 10.0 mi Variable 6.9 mph 13.8 mph N/A   Clear
12:15 PM 68.0 °F - 14.0 °F 12% 30.37 in 10.0 mi Variable 4.6 mph 16.1 mph N/A   Clear
12:35 PM 68.0 °F - 15.8 °F 13% 30.36 in 10.0 mi Variable 6.9 mph 13.8 mph N/A   Clear
12:55 PM 69.8 °F - 21.2 °F 16% 30.36 in 10.0 mi West 12.7 mph 19.6 mph N/A   Clear
1:15 PM 69.8 °F - 19.4 °F 15% 30.35 in 10.0 mi WSW 8.1 mph - N/A   Clear
1:35 PM 69.8 °F - 21.2 °F 16% 30.34 in 10.0 mi WSW 9.2 mph - N/A   Clear
1:55 PM 69.8 °F - 19.4 °F 15% 30.33 in 10.0 mi WSW 8.1 mph 18.4 mph N/A   Clear
2:15 PM 69.8 °F - 19.4 °F 15% 30.33 in 10.0 mi WNW 8.1 mph 15.0 mph N/A   Clear
2:35 PM 69.8 °F - 19.4 °F 15% 30.32 in 10.0 mi SSW 9.2 mph 16.1 mph N/A   Clear
2:55 PM 69.8 °F - 17.6 °F 14% 30.32 in 10.0 mi South 12.7 mph - N/A   Clear
3:15 PM 68.0 °F - 17.6 °F 15% 30.31 in 10.0 mi South 9.2 mph 17.3 mph N/A   Clear
3:35 PM 69.8 °F - 17.6 °F 14% 30.31 in 10.0 mi WSW 11.5 mph - N/A   Clear
3:55 PM 69.8 °F - 14.0 °F 12% 30.30 in 10.0 mi SW 10.4 mph 18.4 mph N/A   Clear
4:15 PM 69.8 °F - 14.0 °F 12% 30.30 in 10.0 mi WSW 10.4 mph 18.4 mph N/A   Clear
4:35 PM 69.8 °F - 14.0 °F 12% 30.30 in 10.0 mi WSW 11.5 mph - N/A   Clear
4:55 PM 68.0 °F - 8.6 °F 10% 30.30 in 10.0 mi SW 12.7 mph 20.7 mph N/A   Clear
5:15 PM 66.2 °F - 8.6 °F 11% 30.31 in 10.0 mi SW 9.2 mph 19.6 mph N/A   Clear
5:35 PM 66.2 °F - 8.6 °F 11% 30.31 in 10.0 mi SW 9.2 mph - N/A   Clear
5:55 PM 64.4 °F - 12.2 °F 13% 30.31 in 10.0 mi SW 9.2 mph - N/A   Clear
6:15 PM 62.6 °F - 14.0 °F 15% 30.31 in 10.0 mi SW 6.9 mph - N/A   Clear
6:35 PM 60.8 °F - 14.0 °F 16% 30.31 in 10.0 mi SW 6.9 mph - N/A   Clear
6:55 PM 57.2 °F - 14.0 °F 18% 30.31 in 10.0 mi SSW 6.9 mph - N/A   Clear
7:15 PM 55.4 °F - 15.8 °F 21% 30.32 in 10.0 mi SSW 6.9 mph - N/A   Clear
7:35 PM 57.2 °F - 14.0 °F 18% 30.32 in 10.0 mi SW 6.9 mph - N/A   Clear
7:55 PM 57.2 °F - 12.2 °F 17% 30.32 in 10.0 mi SW 6.9 mph - N/A   Clear
8:15 PM 57.2 °F - 12.2 °F 17% 30.34 in 10.0 mi SW 5.8 mph - N/A   Clear
8:35 PM 55.4 °F - 12.2 °F 18% 30.34 in 10.0 mi Calm Calm - N/A   Clear
8:55 PM 50.0 °F - 15.8 °F 26% 30.34 in 10.0 mi SE 3.5 mph - N/A   Clear
9:15 PM 50.0 °F - 15.8 °F 26% 30.34 in 10.0 mi SE 8.1 mph - N/A   Clear
9:35 PM 46.4 °F - 17.6 °F 32% 30.34 in 10.0 mi North - - N/A   Clear
9:55 PM 48.2 °F - 15.8 °F 27% 30.35 in 10.0 mi SE 5.8 mph - N/A   Clear
10:15 PM 44.6 °F 40.7 °F 17.6 °F 34% 30.35 in 10.0 mi SE 6.9 mph - N/A   Clear
10:35 PM 46.4 °F 42.4 °F 17.6 °F 32% 30.35 in 10.0 mi SSE 8.1 mph - N/A   Clear
10:55 PM 44.6 °F 41.4 °F 19.4 °F 37% 30.36 in 10.0 mi SSE 5.8 mph - N/A   Clear
11:15 PM 42.8 °F 37.5 °F 19.4 °F 39% 30.35 in 10.0 mi SSE 9.2 mph - N/A   Clear
11:35 PM 42.8 °F 38.0 °F 19.4 °F 39% 30.35 in 10.0 mi South 8.1 mph - N/A   Clear
11:55 PM 42.8 °F 38.0 °F 19.4 °F 39% 30.35 in 10.0 mi South 8.1 mph - N/A   Clear